Year,Month,Day,Hour,Minute,Value (Times are PST for temperature in C)
2015,06,30,00,00,22.90
2015,06,30,00,01,22.90
2015,06,30,00,02,22.90
2015,06,30,00,03,22.90
2015,06,30,00,04,22.90
2015,06,30,00,05,22.90
2015,06,30,00,06,22.90
2015,06,30,00,07,22.90
2015,06,30,00,08,22.90
2015,06,30,00,09,22.90
2015,06,30,00,10,22.90
2015,06,30,00,11,22.90
2015,06,30,00,12,22.80
2015,06,30,00,13,22.80
2015,06,30,00,14,22.80
2015,06,30,00,15,22.80
2015,06,30,00,16,22.80
2015,06,30,00,17,22.80
2015,06,30,00,18,22.80
2015,06,30,00,19,22.70
2015,06,30,00,20,22.70
2015,06,30,00,21,22.70
2015,06,30,00,22,22.70
2015,06,30,00,23,22.70
2015,06,30,00,24,22.60
2015,06,30,00,25,22.60
2015,06,30,00,26,22.60
2015,06,30,00,27,22.60
2015,06,30,00,28,22.50
2015,06,30,00,29,22.50
2015,06,30,00,30,22.50
2015,06,30,00,31,22.40
2015,06,30,00,32,22.40
2015,06,30,00,33,22.40
2015,06,30,00,34,22.40
2015,06,30,00,35,22.30
2015,06,30,00,36,22.30
2015,06,30,00,37,22.30
2015,06,30,00,38,22.30
2015,06,30,00,39,22.30
2015,06,30,00,40,22.30
2015,06,30,00,41,22.30
2015,06,30,00,42,22.30
2015,06,30,00,43,22.30
2015,06,30,00,44,22.30
2015,06,30,00,45,22.30
2015,06,30,00,46,22.30
2015,06,30,00,47,22.30
2015,06,30,00,48,22.30
2015,06,30,00,49,22.30
2015,06,30,00,50,22.30
2015,06,30,00,51,22.30
2015,06,30,00,52,22.30
2015,06,30,00,53,22.30
2015,06,30,00,54,22.30
2015,06,30,00,55,22.30
2015,06,30,00,56,22.30
2015,06,30,00,57,22.30
2015,06,30,00,58,22.30
2015,06,30,00,59,22.30
2015,06,30,01,00,22.30
2015,06,30,01,01,22.30
2015,06,30,01,02,22.30
2015,06,30,01,03,22.30
2015,06,30,01,04,22.30
2015,06,30,01,05,22.30
2015,06,30,01,06,22.30
2015,06,30,01,07,22.30
2015,06,30,01,08,22.30
2015,06,30,01,09,22.40
2015,06,30,01,10,22.40
2015,06,30,01,11,22.40
2015,06,30,01,12,22.40
2015,06,30,01,13,22.40
2015,06,30,01,14,22.40
2015,06,30,01,15,22.40
2015,06,30,01,16,22.40
2015,06,30,01,17,22.50
2015,06,30,01,18,22.50
2015,06,30,01,19,22.50
2015,06,30,01,20,22.50
2015,06,30,01,21,22.60
2015,06,30,01,22,22.60
2015,06,30,01,23,22.60
2015,06,30,01,24,22.60
2015,06,30,01,25,22.60
2015,06,30,01,26,22.60
2015,06,30,01,27,22.70
2015,06,30,01,28,22.70
2015,06,30,01,29,22.70
2015,06,30,01,30,22.80
2015,06,30,01,31,22.80
2015,06,30,01,32,22.80
2015,06,30,01,33,22.80
2015,06,30,01,34,22.80
2015,06,30,01,35,22.80
2015,06,30,01,36,22.80
2015,06,30,01,37,22.80
2015,06,30,01,38,22.80
2015,06,30,01,39,22.80
2015,06,30,01,40,22.80
2015,06,30,01,41,22.90
2015,06,30,01,42,22.90
2015,06,30,01,43,22.90
2015,06,30,01,44,22.90
2015,06,30,01,45,22.90
2015,06,30,01,46,22.90
2015,06,30,01,47,22.90
2015,06,30,01,48,22.90
2015,06,30,01,49,22.90
2015,06,30,01,50,22.90
2015,06,30,01,51,23.00
2015,06,30,01,52,23.00
2015,06,30,01,53,22.90
2015,06,30,01,54,22.90
2015,06,30,01,55,22.90
2015,06,30,01,56,22.90
2015,06,30,01,57,22.90
2015,06,30,01,58,22.90
2015,06,30,01,59,22.90
2015,06,30,02,00,22.80
2015,06,30,02,01,22.80
2015,06,30,02,02,22.70
2015,06,30,02,03,22.70
2015,06,30,02,04,22.70
2015,06,30,02,05,22.60
2015,06,30,02,06,22.60
2015,06,30,02,07,22.50
2015,06,30,02,08,22.40
2015,06,30,02,09,22.40
2015,06,30,02,10,22.30
2015,06,30,02,11,22.30
2015,06,30,02,12,22.20
2015,06,30,02,13,22.20
2015,06,30,02,14,22.10
2015,06,30,02,15,22.00
2015,06,30,02,16,22.00
2015,06,30,02,17,21.90
2015,06,30,02,18,21.90
2015,06,30,02,19,21.80
2015,06,30,02,20,21.80
2015,06,30,02,21,21.80
2015,06,30,02,22,21.70
2015,06,30,02,23,21.70
2015,06,30,02,24,21.60
2015,06,30,02,25,21.60
2015,06,30,02,26,21.60
2015,06,30,02,27,21.50
2015,06,30,02,28,21.50
2015,06,30,02,29,21.40
2015,06,30,02,30,21.40
2015,06,30,02,31,21.30
2015,06,30,02,32,21.30
2015,06,30,02,33,21.30
2015,06,30,02,34,21.20
2015,06,30,02,35,21.20
2015,06,30,02,36,21.20
2015,06,30,02,37,21.10
2015,06,30,02,38,21.10
2015,06,30,02,39,21.10
2015,06,30,02,40,21.00
2015,06,30,02,41,21.00
2015,06,30,02,42,21.00
2015,06,30,02,43,21.00
2015,06,30,02,44,20.90
2015,06,30,02,45,20.90
2015,06,30,02,46,20.90
2015,06,30,02,47,20.90
2015,06,30,02,48,20.90
2015,06,30,02,49,20.90
2015,06,30,02,50,20.80
2015,06,30,02,51,20.80
2015,06,30,02,52,20.80
2015,06,30,02,53,20.80
2015,06,30,02,54,20.80
2015,06,30,02,55,20.80
2015,06,30,02,56,20.80
2015,06,30,02,57,20.80
2015,06,30,02,58,20.80
2015,06,30,02,59,20.80
2015,06,30,03,00,20.80
2015,06,30,03,01,20.80
2015,06,30,03,02,20.80
2015,06,30,03,03,20.80
2015,06,30,03,04,20.80
2015,06,30,03,05,20.80
2015,06,30,03,06,20.80
2015,06,30,03,07,20.70
2015,06,30,03,08,20.70
2015,06,30,03,09,20.70
2015,06,30,03,10,20.70
2015,06,30,03,11,20.70
2015,06,30,03,12,20.70
2015,06,30,03,13,20.70
2015,06,30,03,14,20.70
2015,06,30,03,15,20.70
2015,06,30,03,16,20.70
2015,06,30,03,17,20.80
2015,06,30,03,18,20.80
2015,06,30,03,19,20.80
2015,06,30,03,20,20.80
2015,06,30,03,21,20.80
2015,06,30,03,22,20.80
2015,06,30,03,23,20.80
2015,06,30,03,24,20.80
2015,06,30,03,25,20.80
2015,06,30,03,26,20.80
2015,06,30,03,27,20.80
2015,06,30,03,28,20.80
2015,06,30,03,29,20.80
2015,06,30,03,30,20.80
2015,06,30,03,31,20.80
2015,06,30,03,32,20.80
2015,06,30,03,33,20.80
2015,06,30,03,34,20.80
2015,06,30,03,35,20.80
2015,06,30,03,36,20.80
2015,06,30,03,37,20.80
2015,06,30,03,38,20.70
2015,06,30,03,39,20.70
2015,06,30,03,40,20.70
2015,06,30,03,41,20.70
2015,06,30,03,42,20.60
2015,06,30,03,43,20.60
2015,06,30,03,44,20.60
2015,06,30,03,45,20.50
2015,06,30,03,46,20.50
2015,06,30,03,47,20.40
2015,06,30,03,48,20.40
2015,06,30,03,49,20.40
2015,06,30,03,50,20.30
2015,06,30,03,51,20.30
2015,06,30,03,52,20.30
2015,06,30,03,53,20.20
2015,06,30,03,54,20.20
2015,06,30,03,55,20.20
2015,06,30,03,56,20.20
2015,06,30,03,57,20.10
2015,06,30,03,58,20.10
2015,06,30,03,59,20.10
2015,06,30,04,00,20.00
2015,06,30,04,01,20.00
2015,06,30,04,02,20.00
2015,06,30,04,03,19.90
2015,06,30,04,04,19.90
2015,06,30,04,05,19.90
2015,06,30,04,06,19.90
2015,06,30,04,07,19.80
2015,06,30,04,08,19.80
2015,06,30,04,09,19.80
2015,06,30,04,10,19.80
2015,06,30,04,11,19.80
2015,06,30,04,12,19.70
2015,06,30,04,13,19.70
2015,06,30,04,14,19.70
2015,06,30,04,15,19.70
2015,06,30,04,16,19.70
2015,06,30,04,17,19.70
2015,06,30,04,18,19.60
2015,06,30,04,19,19.60
2015,06,30,04,20,19.60
2015,06,30,04,21,19.60
2015,06,30,04,22,19.60
2015,06,30,04,23,19.60
2015,06,30,04,24,19.60
2015,06,30,04,25,19.60
2015,06,30,04,26,19.60
2015,06,30,04,27,19.60
2015,06,30,04,28,19.60
2015,06,30,04,29,19.60
2015,06,30,04,30,19.60
2015,06,30,04,31,19.60
2015,06,30,04,32,19.60
2015,06,30,04,33,19.60
2015,06,30,04,34,19.60
2015,06,30,04,35,19.60
2015,06,30,04,36,19.60
2015,06,30,04,37,19.60
2015,06,30,04,38,19.60
2015,06,30,04,39,19.60
2015,06,30,04,40,19.60
2015,06,30,04,41,19.60
2015,06,30,04,42,19.60
2015,06,30,04,43,19.60
2015,06,30,04,44,19.60
2015,06,30,04,45,19.60
2015,06,30,04,46,19.60
2015,06,30,04,47,19.50
2015,06,30,04,48,19.50
2015,06,30,04,49,19.50
2015,06,30,04,50,19.50
2015,06,30,04,51,19.50
2015,06,30,04,52,19.50
2015,06,30,04,53,19.50
2015,06,30,04,54,19.50
2015,06,30,04,55,19.50
2015,06,30,04,56,19.50
2015,06,30,04,57,19.50
2015,06,30,04,58,19.50
2015,06,30,04,59,19.50
2015,06,30,05,00,19.40
2015,06,30,05,01,19.40
2015,06,30,05,02,19.40
2015,06,30,05,03,19.40
2015,06,30,05,04,19.40
2015,06,30,05,05,19.40
2015,06,30,05,06,19.40
2015,06,30,05,07,19.30
2015,06,30,05,08,19.30
2015,06,30,05,09,19.30
2015,06,30,05,10,19.30
2015,06,30,05,11,19.30
2015,06,30,05,12,19.20
2015,06,30,05,13,19.20
2015,06,30,05,14,19.20
2015,06,30,05,15,19.20
2015,06,30,05,16,19.20
2015,06,30,05,17,19.10
2015,06,30,05,18,19.10
2015,06,30,05,19,19.10
2015,06,30,05,20,19.10
2015,06,30,05,21,19.10
2015,06,30,05,22,19.10
2015,06,30,05,23,19.10
2015,06,30,05,24,19.10
2015,06,30,05,25,19.00
2015,06,30,05,26,19.00
2015,06,30,05,27,19.00
2015,06,30,05,28,19.00
2015,06,30,05,29,19.00
2015,06,30,05,30,18.90
2015,06,30,05,31,18.90
2015,06,30,05,32,18.90
2015,06,30,05,33,18.90
2015,06,30,05,34,18.90
2015,06,30,05,35,18.90
2015,06,30,05,36,18.90
2015,06,30,05,37,18.80
2015,06,30,05,38,18.80
2015,06,30,05,39,18.80
2015,06,30,05,40,18.80
2015,06,30,05,41,18.80
2015,06,30,05,42,18.80
2015,06,30,05,43,18.80
2015,06,30,05,44,18.80
2015,06,30,05,45,18.80
2015,06,30,05,46,18.80
2015,06,30,05,47,18.80
2015,06,30,05,48,18.80
2015,06,30,05,49,18.80
2015,06,30,05,50,18.80
2015,06,30,05,51,18.80
2015,06,30,05,52,18.80
2015,06,30,05,53,18.80
2015,06,30,05,54,18.90
2015,06,30,05,55,18.90
2015,06,30,05,56,18.90
2015,06,30,05,57,18.90
2015,06,30,05,58,18.90
2015,06,30,05,59,18.90
2015,06,30,06,00,18.90
2015,06,30,06,01,18.90
2015,06,30,06,02,18.90
2015,06,30,06,03,18.90
2015,06,30,06,04,18.90
2015,06,30,06,05,18.90
2015,06,30,06,06,18.90
2015,06,30,06,07,18.90
2015,06,30,06,08,18.90
2015,06,30,06,09,18.90
2015,06,30,06,10,18.90
2015,06,30,06,11,18.90
2015,06,30,06,12,18.90
2015,06,30,06,13,18.90
2015,06,30,06,14,18.90
2015,06,30,06,15,18.90
2015,06,30,06,16,18.80
2015,06,30,06,17,18.80
2015,06,30,06,18,18.80
2015,06,30,06,19,18.80
2015,06,30,06,20,18.80
2015,06,30,06,21,18.80
2015,06,30,06,22,18.80
2015,06,30,06,23,18.80
2015,06,30,06,24,18.80
2015,06,30,06,25,18.80
2015,06,30,06,26,18.80
2015,06,30,06,27,18.80
2015,06,30,06,28,18.80
2015,06,30,06,29,18.80
2015,06,30,06,30,18.80
2015,06,30,06,31,18.90
2015,06,30,06,32,18.90
2015,06,30,06,33,18.90
2015,06,30,06,34,18.90
2015,06,30,06,35,18.90
2015,06,30,06,36,18.90
2015,06,30,06,37,18.90
2015,06,30,06,38,19.00
2015,06,30,06,39,19.00
2015,06,30,06,40,19.00
2015,06,30,06,41,19.00
2015,06,30,06,42,19.10
2015,06,30,06,43,19.10
2015,06,30,06,44,19.10
2015,06,30,06,45,19.10
2015,06,30,06,46,19.10
2015,06,30,06,47,19.10
2015,06,30,06,48,19.10
2015,06,30,06,49,19.10
2015,06,30,06,50,19.10
2015,06,30,06,51,19.10
2015,06,30,06,52,19.10
2015,06,30,06,53,19.10
2015,06,30,06,54,19.10
2015,06,30,06,55,19.20
2015,06,30,06,56,19.20
2015,06,30,06,57,19.20
2015,06,30,06,58,19.20
2015,06,30,06,59,19.20
2015,06,30,07,00,19.20
2015,06,30,07,01,19.20
2015,06,30,07,02,19.20
2015,06,30,07,03,19.30
2015,06,30,07,04,19.30
2015,06,30,07,05,19.30
2015,06,30,07,06,19.30
2015,06,30,07,07,19.40
2015,06,30,07,08,19.40
2015,06,30,07,09,19.40
2015,06,30,07,10,19.40
2015,06,30,07,11,19.50
2015,06,30,07,12,19.50
2015,06,30,07,13,19.60
2015,06,30,07,14,19.60
2015,06,30,07,15,19.60
2015,06,30,07,16,19.70
2015,06,30,07,17,19.70
2015,06,30,07,18,19.70
2015,06,30,07,19,19.80
2015,06,30,07,20,19.80
2015,06,30,07,21,19.80
2015,06,30,07,22,19.90
2015,06,30,07,23,19.90
2015,06,30,07,24,20.00
2015,06,30,07,25,20.00
2015,06,30,07,26,20.10
2015,06,30,07,27,20.10
2015,06,30,07,28,20.10
2015,06,30,07,29,20.10
2015,06,30,07,30,20.10
2015,06,30,07,31,20.10
2015,06,30,07,32,20.10
2015,06,30,07,33,20.00
2015,06,30,07,34,20.00
2015,06,30,07,35,19.90
2015,06,30,07,36,19.90
2015,06,30,07,37,19.80
2015,06,30,07,38,19.80
2015,06,30,07,39,19.80
2015,06,30,07,40,19.80
2015,06,30,07,41,19.80
2015,06,30,07,42,19.80
2015,06,30,07,43,19.80
2015,06,30,07,44,19.80
2015,06,30,07,45,19.90
2015,06,30,07,46,19.90
2015,06,30,07,47,19.90
2015,06,30,07,48,19.90
2015,06,30,07,49,19.90
2015,06,30,07,50,20.00
2015,06,30,07,51,20.00
2015,06,30,07,52,20.10
2015,06,30,07,53,20.10
2015,06,30,07,54,20.20
2015,06,30,07,55,20.20
2015,06,30,07,56,20.30
2015,06,30,07,57,20.30
2015,06,30,07,58,20.40
2015,06,30,07,59,20.50
2015,06,30,08,00,20.50
2015,06,30,08,01,20.60
2015,06,30,08,02,20.70
2015,06,30,08,03,20.80
2015,06,30,08,04,21.00
2015,06,30,08,05,21.00
2015,06,30,08,06,21.10
2015,06,30,08,07,21.20
2015,06,30,08,08,21.20
2015,06,30,08,09,21.20
2015,06,30,08,10,21.20
2015,06,30,08,11,21.20
2015,06,30,08,12,21.30
2015,06,30,08,13,21.30
2015,06,30,08,14,21.30
2015,06,30,08,15,21.30
2015,06,30,08,16,21.30
2015,06,30,08,17,21.30
2015,06,30,08,18,21.30
2015,06,30,08,19,21.40
2015,06,30,08,20,21.40
2015,06,30,08,21,21.30
2015,06,30,08,22,21.30
2015,06,30,08,23,21.30
2015,06,30,08,24,21.30
2015,06,30,08,25,21.30
2015,06,30,08,26,21.30
2015,06,30,08,27,21.30
2015,06,30,08,28,21.30
2015,06,30,08,29,21.30
2015,06,30,08,30,21.30
2015,06,30,08,31,21.30
2015,06,30,08,32,21.30
2015,06,30,08,33,21.40
2015,06,30,08,34,21.40
2015,06,30,08,35,21.50
2015,06,30,08,36,21.50
2015,06,30,08,37,21.50
2015,06,30,08,38,21.50
2015,06,30,08,39,21.60
2015,06,30,08,40,21.60
2015,06,30,08,41,21.60
2015,06,30,08,42,21.60
2015,06,30,08,43,21.60
2015,06,30,08,44,21.60
2015,06,30,08,45,21.60
2015,06,30,08,46,21.60
2015,06,30,08,47,21.50
2015,06,30,08,48,21.50
2015,06,30,08,49,21.50
2015,06,30,08,50,21.50
2015,06,30,08,51,21.50
2015,06,30,08,52,21.60
2015,06,30,08,53,21.60
2015,06,30,08,54,21.60
2015,06,30,08,55,21.60
2015,06,30,08,56,21.60
2015,06,30,08,57,21.60
2015,06,30,08,58,21.70
2015,06,30,08,59,21.70
2015,06,30,09,00,21.80
2015,06,30,09,01,21.80
2015,06,30,09,02,21.80
2015,06,30,09,03,21.80
2015,06,30,09,04,21.80
2015,06,30,09,05,21.90
2015,06,30,09,06,21.90
2015,06,30,09,07,21.90
2015,06,30,09,08,22.00
2015,06,30,09,09,22.10
2015,06,30,09,10,22.10
2015,06,30,09,11,22.20
2015,06,30,09,12,22.30
2015,06,30,09,13,22.40
2015,06,30,09,14,22.50
2015,06,30,09,15,22.60
2015,06,30,09,16,22.70
2015,06,30,09,17,22.70
2015,06,30,09,18,22.80
2015,06,30,09,19,22.80
2015,06,30,09,20,22.80
2015,06,30,09,21,22.90
2015,06,30,09,22,23.00
2015,06,30,09,23,23.00
2015,06,30,09,24,23.10
2015,06,30,09,25,23.10
2015,06,30,09,26,23.20
2015,06,30,09,27,23.30
2015,06,30,09,28,23.30
2015,06,30,09,29,23.40
2015,06,30,09,30,23.40
2015,06,30,09,31,23.50
2015,06,30,09,32,23.50
2015,06,30,09,33,23.60
2015,06,30,09,34,23.60
2015,06,30,09,35,23.60
2015,06,30,09,36,23.50
2015,06,30,09,37,23.50
2015,06,30,09,38,23.50
2015,06,30,09,39,23.40
2015,06,30,09,40,23.40
2015,06,30,09,41,23.30
2015,06,30,09,42,23.30
2015,06,30,09,43,23.20
2015,06,30,09,44,23.10
2015,06,30,09,45,23.00
2015,06,30,09,46,22.90
2015,06,30,09,47,22.90
2015,06,30,09,48,22.80
2015,06,30,09,49,22.80
2015,06,30,09,50,22.70
2015,06,30,09,51,22.70
2015,06,30,09,52,22.70
2015,06,30,09,53,22.70
2015,06,30,09,54,22.70
2015,06,30,09,55,22.70
2015,06,30,09,56,22.70
2015,06,30,09,57,22.70
2015,06,30,09,58,22.70
2015,06,30,09,59,22.70
2015,06,30,10,00,22.70
2015,06,30,10,01,22.70
2015,06,30,10,02,22.70
2015,06,30,10,03,22.60
2015,06,30,10,04,22.60
2015,06,30,10,05,22.60
2015,06,30,10,06,22.60
2015,06,30,10,07,22.60
2015,06,30,10,08,22.60
2015,06,30,10,09,22.70
2015,06,30,10,10,22.70
2015,06,30,10,11,22.80
2015,06,30,10,12,22.80
2015,06,30,10,13,22.90
2015,06,30,10,14,23.00
2015,06,30,10,15,23.00
2015,06,30,10,16,23.10
2015,06,30,10,17,23.10
2015,06,30,10,18,23.20
2015,06,30,10,19,23.20
2015,06,30,10,20,23.20
2015,06,30,10,21,23.20
2015,06,30,10,22,23.30
2015,06,30,10,23,23.30
2015,06,30,10,24,23.40
2015,06,30,10,25,23.50
2015,06,30,10,26,23.50
2015,06,30,10,27,23.60
2015,06,30,10,28,23.70
2015,06,30,10,29,23.70
2015,06,30,10,30,23.70
2015,06,30,10,31,23.70
2015,06,30,10,32,23.70
2015,06,30,10,33,23.70
2015,06,30,10,34,23.70
2015,06,30,10,35,23.80
2015,06,30,10,36,23.90
2015,06,30,10,37,23.90
2015,06,30,10,38,24.00
2015,06,30,10,39,24.10
2015,06,30,10,40,24.10
2015,06,30,10,41,24.20
2015,06,30,10,42,24.20
2015,06,30,10,43,24.20
2015,06,30,10,44,24.20
2015,06,30,10,45,24.20
2015,06,30,10,46,24.20
2015,06,30,10,47,24.10
2015,06,30,10,48,24.10
2015,06,30,10,49,24.00
2015,06,30,10,50,23.90
2015,06,30,10,51,23.80
2015,06,30,10,52,23.80
2015,06,30,10,53,23.70
2015,06,30,10,54,23.80
2015,06,30,10,55,23.80
2015,06,30,10,56,23.80
2015,06,30,10,57,23.80
2015,06,30,10,58,23.90
2015,06,30,10,59,23.90
2015,06,30,11,00,23.90
2015,06,30,11,01,23.90
2015,06,30,11,02,23.80
2015,06,30,11,03,23.70
2015,06,30,11,04,23.70
2015,06,30,11,05,23.70
2015,06,30,11,06,23.70
2015,06,30,11,07,23.70
2015,06,30,11,08,23.60
2015,06,30,11,09,23.70
2015,06,30,11,10,23.60
2015,06,30,11,11,23.60
2015,06,30,11,12,23.60
2015,06,30,11,13,23.50
2015,06,30,11,14,23.40
2015,06,30,11,15,23.40
2015,06,30,11,16,23.30
2015,06,30,11,17,23.30
2015,06,30,11,18,23.30
2015,06,30,11,19,23.30
2015,06,30,11,20,23.30
2015,06,30,11,21,23.30
2015,06,30,11,22,23.40
2015,06,30,11,23,23.40
2015,06,30,11,24,23.50
2015,06,30,11,25,23.60
2015,06,30,11,26,23.60
2015,06,30,11,27,23.70
2015,06,30,11,28,23.80
2015,06,30,11,29,23.90
2015,06,30,11,30,23.90
2015,06,30,11,31,23.90
2015,06,30,11,32,23.90
2015,06,30,11,33,23.90
2015,06,30,11,34,23.90
2015,06,30,11,35,23.80
2015,06,30,11,36,23.90
2015,06,30,11,37,23.90
2015,06,30,11,38,24.00
2015,06,30,11,39,24.00
2015,06,30,11,40,24.00
2015,06,30,11,41,23.90
2015,06,30,11,42,23.90
2015,06,30,11,43,24.00
2015,06,30,11,44,24.10
2015,06,30,11,45,24.10
2015,06,30,11,46,24.20
2015,06,30,11,47,24.30
2015,06,30,11,48,24.40
2015,06,30,11,49,24.50
2015,06,30,11,50,24.50
2015,06,30,11,51,24.60
2015,06,30,11,52,24.70
2015,06,30,11,53,24.70
2015,06,30,11,54,24.70
2015,06,30,11,55,24.80
2015,06,30,11,56,24.80
2015,06,30,11,57,24.80
2015,06,30,11,58,24.90
2015,06,30,11,59,24.90
2015,06,30,12,00,24.90
2015,06,30,12,01,24.90
2015,06,30,12,02,25.00
2015,06,30,12,03,25.10
2015,06,30,12,04,25.10
2015,06,30,12,05,25.20
2015,06,30,12,06,25.20
2015,06,30,12,07,25.30
2015,06,30,12,08,25.30
2015,06,30,12,09,25.30
2015,06,30,12,10,25.40
2015,06,30,12,11,25.40
2015,06,30,12,12,25.50
2015,06,30,12,13,25.50
2015,06,30,12,14,25.60
2015,06,30,12,15,25.60
2015,06,30,12,16,25.60
2015,06,30,12,17,25.60
2015,06,30,12,18,25.60
2015,06,30,12,19,25.50
2015,06,30,12,20,25.50
2015,06,30,12,21,25.60
2015,06,30,12,22,25.60
2015,06,30,12,23,25.60
2015,06,30,12,24,25.60
2015,06,30,12,25,25.60
2015,06,30,12,26,25.60
2015,06,30,12,27,25.60
2015,06,30,12,28,25.70
2015,06,30,12,29,25.70
2015,06,30,12,30,25.80
2015,06,30,12,31,25.80
2015,06,30,12,32,25.80
2015,06,30,12,33,25.90
2015,06,30,12,34,25.90
2015,06,30,12,35,25.90
2015,06,30,12,36,25.90
2015,06,30,12,37,25.90
2015,06,30,12,38,25.90
2015,06,30,12,39,26.00
2015,06,30,12,40,25.90
2015,06,30,12,41,26.00
2015,06,30,12,42,26.10
2015,06,30,12,43,26.10
2015,06,30,12,44,26.20
2015,06,30,12,45,26.20
2015,06,30,12,46,26.30
2015,06,30,12,47,26.30
2015,06,30,12,48,26.30
2015,06,30,12,49,26.30
2015,06,30,12,50,26.40
2015,06,30,12,51,26.40
2015,06,30,12,52,26.40
2015,06,30,12,53,26.40
2015,06,30,12,54,26.40
2015,06,30,12,55,26.40
2015,06,30,12,56,26.40
2015,06,30,12,57,26.40
2015,06,30,12,58,26.40
2015,06,30,12,59,26.40
2015,06,30,13,00,26.40
2015,06,30,13,01,26.40
2015,06,30,13,02,26.40
2015,06,30,13,03,26.40
2015,06,30,13,04,26.50
2015,06,30,13,05,26.50
2015,06,30,13,06,26.60
2015,06,30,13,07,26.60
2015,06,30,13,08,26.70
2015,06,30,13,09,26.70
2015,06,30,13,10,26.70
2015,06,30,13,11,26.60
2015,06,30,13,12,26.70
2015,06,30,13,13,26.70
2015,06,30,13,14,26.70
2015,06,30,13,15,26.70
2015,06,30,13,16,26.60
2015,06,30,13,17,26.60
2015,06,30,13,18,26.50
2015,06,30,13,19,26.50
2015,06,30,13,20,26.50
2015,06,30,13,21,26.40
2015,06,30,13,22,26.50
2015,06,30,13,23,26.50
2015,06,30,13,24,26.60
2015,06,30,13,25,26.60
2015,06,30,13,26,26.60
2015,06,30,13,27,26.60
2015,06,30,13,28,26.50
2015,06,30,13,29,26.40
2015,06,30,13,30,26.30
2015,06,30,13,31,26.30
2015,06,30,13,32,26.20
2015,06,30,13,33,26.20
2015,06,30,13,34,26.20
2015,06,30,13,35,26.30
2015,06,30,13,36,26.30
2015,06,30,13,37,26.30
2015,06,30,13,38,26.30
2015,06,30,13,39,26.30
2015,06,30,13,40,26.30
2015,06,30,13,41,26.30
2015,06,30,13,42,26.20
2015,06,30,13,43,26.20
2015,06,30,13,44,26.20
2015,06,30,13,45,26.20
2015,06,30,13,46,26.20
2015,06,30,13,47,26.20
2015,06,30,13,48,26.20
2015,06,30,13,49,26.30
2015,06,30,13,50,26.30
2015,06,30,13,51,26.30
2015,06,30,13,52,26.40
2015,06,30,13,53,26.50
2015,06,30,13,54,26.60
2015,06,30,13,55,26.80
2015,06,30,13,56,26.90
2015,06,30,13,57,27.00
2015,06,30,13,58,27.10
2015,06,30,13,59,27.10
2015,06,30,14,00,27.10
2015,06,30,14,01,27.10
2015,06,30,14,02,27.20
2015,06,30,14,03,27.10
2015,06,30,14,04,27.00
2015,06,30,14,05,27.00
2015,06,30,14,06,26.90
2015,06,30,14,07,26.90
2015,06,30,14,08,27.00
2015,06,30,14,09,27.00
2015,06,30,14,10,27.00
2015,06,30,14,11,26.90
2015,06,30,14,12,27.00
2015,06,30,14,13,27.00
2015,06,30,14,14,27.10
2015,06,30,14,15,27.10
2015,06,30,14,16,27.10
2015,06,30,14,17,27.10
2015,06,30,14,18,27.10
2015,06,30,14,19,27.10
2015,06,30,14,20,27.10
2015,06,30,14,21,27.10
2015,06,30,14,22,27.10
2015,06,30,14,23,27.10
2015,06,30,14,24,27.10
2015,06,30,14,25,27.00
2015,06,30,14,26,26.90
2015,06,30,14,27,26.90
2015,06,30,14,28,26.90
2015,06,30,14,29,26.80
2015,06,30,14,30,26.80
2015,06,30,14,31,26.80
2015,06,30,14,32,26.80
2015,06,30,14,33,26.80
2015,06,30,14,34,26.90
2015,06,30,14,35,26.90
2015,06,30,14,36,26.90
2015,06,30,14,37,26.90
2015,06,30,14,38,26.90
2015,06,30,14,39,26.90
2015,06,30,14,40,26.90
2015,06,30,14,41,26.90
2015,06,30,14,42,26.90
2015,06,30,14,43,26.90
2015,06,30,14,44,27.00
2015,06,30,14,45,27.00
2015,06,30,14,46,27.10
2015,06,30,14,47,27.10
2015,06,30,14,48,27.20
2015,06,30,14,49,27.20
2015,06,30,14,50,27.20
2015,06,30,14,51,27.20
2015,06,30,14,52,27.10
2015,06,30,14,53,27.00
2015,06,30,14,54,26.90
2015,06,30,14,55,26.80
2015,06,30,14,56,26.70
2015,06,30,14,57,26.60
2015,06,30,14,58,26.50
2015,06,30,14,59,26.40
2015,06,30,15,00,26.40
2015,06,30,15,01,26.30
2015,06,30,15,02,26.30
2015,06,30,15,03,26.20
2015,06,30,15,04,26.20
2015,06,30,15,05,26.20
2015,06,30,15,06,26.30
2015,06,30,15,07,26.30
2015,06,30,15,08,26.30
2015,06,30,15,09,26.30
2015,06,30,15,10,26.30
2015,06,30,15,11,26.30
2015,06,30,15,12,26.30
2015,06,30,15,13,26.30
2015,06,30,15,14,26.30
2015,06,30,15,15,26.30
2015,06,30,15,16,26.30
2015,06,30,15,17,26.30
2015,06,30,15,18,26.30
2015,06,30,15,19,26.30
2015,06,30,15,20,26.40
2015,06,30,15,21,26.40
2015,06,30,15,22,26.40
2015,06,30,15,23,26.40
2015,06,30,15,24,26.40
2015,06,30,15,25,26.30
2015,06,30,15,26,26.30
2015,06,30,15,27,26.30
2015,06,30,15,28,26.30
2015,06,30,15,29,26.30
2015,06,30,15,30,26.30
2015,06,30,15,31,26.40
2015,06,30,15,32,26.50
2015,06,30,15,33,26.50
2015,06,30,15,34,26.50
2015,06,30,15,35,26.60
2015,06,30,15,36,26.60
2015,06,30,15,37,26.60
2015,06,30,15,38,26.60
2015,06,30,15,39,26.60
2015,06,30,15,40,26.60
2015,06,30,15,41,26.60
2015,06,30,15,42,26.60
2015,06,30,15,43,26.60
2015,06,30,15,44,26.60
2015,06,30,15,45,26.60
2015,06,30,15,46,26.60
2015,06,30,15,47,26.60
2015,06,30,15,48,26.60
2015,06,30,15,49,26.50
2015,06,30,15,50,26.50
2015,06,30,15,51,26.40
2015,06,30,15,52,26.30
2015,06,30,15,53,26.30
2015,06,30,15,54,26.30
2015,06,30,15,55,26.30
2015,06,30,15,56,26.40
2015,06,30,15,57,26.40
2015,06,30,15,58,26.50
2015,06,30,15,59,26.50
2015,06,30,16,00,26.50
2015,06,30,16,01,26.60
2015,06,30,16,02,26.60
2015,06,30,16,03,26.60
2015,06,30,16,04,26.70
2015,06,30,16,05,26.70
2015,06,30,16,06,26.70
2015,06,30,16,07,26.80
2015,06,30,16,08,26.80
2015,06,30,16,09,26.90
2015,06,30,16,10,27.00
2015,06,30,16,11,27.00
2015,06,30,16,12,27.10
2015,06,30,16,13,27.10
2015,06,30,16,14,27.00
2015,06,30,16,15,27.00
2015,06,30,16,16,27.00
2015,06,30,16,17,27.00
2015,06,30,16,18,27.00
2015,06,30,16,19,27.10
2015,06,30,16,20,27.10
2015,06,30,16,21,27.10
2015,06,30,16,22,27.10
2015,06,30,16,23,27.10
2015,06,30,16,24,27.10
2015,06,30,16,25,27.10
2015,06,30,16,26,27.10
2015,06,30,16,27,27.00
2015,06,30,16,28,27.00
2015,06,30,16,29,26.90
2015,06,30,16,30,26.90
2015,06,30,16,31,26.90
2015,06,30,16,32,26.90
2015,06,30,16,33,26.80
2015,06,30,16,34,26.80
2015,06,30,16,35,26.90
2015,06,30,16,36,26.90
2015,06,30,16,37,27.00
2015,06,30,16,38,27.00
2015,06,30,16,39,27.00
2015,06,30,16,40,27.00
2015,06,30,16,41,27.00
2015,06,30,16,42,27.00
2015,06,30,16,43,27.00
2015,06,30,16,44,27.00
2015,06,30,16,45,27.00
2015,06,30,16,46,27.10
2015,06,30,16,47,27.20
2015,06,30,16,48,27.20
2015,06,30,16,49,27.30
2015,06,30,16,50,27.40
2015,06,30,16,51,27.40
2015,06,30,16,52,27.40
2015,06,30,16,53,27.50
2015,06,30,16,54,27.50
2015,06,30,16,55,27.60
2015,06,30,16,56,27.70
2015,06,30,16,57,27.70
2015,06,30,16,58,27.80
2015,06,30,16,59,27.80
2015,06,30,17,00,27.80
2015,06,30,17,01,27.80
2015,06,30,17,02,27.80
2015,06,30,17,03,27.80
2015,06,30,17,04,27.80
2015,06,30,17,05,27.80
2015,06,30,17,06,27.80
2015,06,30,17,07,27.70
2015,06,30,17,08,27.70
2015,06,30,17,09,27.70
2015,06,30,17,10,27.70
2015,06,30,17,11,27.60
2015,06,30,17,12,27.70
2015,06,30,17,13,27.70
2015,06,30,17,14,27.70
2015,06,30,17,15,27.70
2015,06,30,17,16,27.70
2015,06,30,17,17,27.70
2015,06,30,17,18,27.70
2015,06,30,17,19,27.70